FW4557 Weather Reports


time (UTC)temp
F
wind
direction
speed
knots
gust
knots
rain 1hr
in
rain 24hr
in
rain mn
in
humidity
%
barometer
mb
20210723164024 94 187 8.7 14.8 0.00 0.00 0.00 22 1020.9
20210723163024 94 199 7.0 13.9 0.00 0.00 0.00 22 1020.9
20210723162023 96 177 10.4 13.9 0.00 0.00 0.00 22 1020.9
20210723161023 95 179 10.4 14.8 0.00 0.00 0.00 21 1020.9
20210723160023 96 181 13.0 13.9 0.00 0.00 0.00 21 1020.9
20210723155023 97 201 13.0 14.8 0.00 0.00 0.00 21 1020.9
20210723154022 96 165 8.7 14.8 0.00 0.00 0.00 22 1020.9
20210723153022 95 201 8.7 15.6 0.00 0.00 0.00 22 1020.9
20210723152021 94 176 9.6 14.8 0.00 0.00 0.00 23 1020.9
20210723151021 93 177 10.4 15.6 0.00 0.00 0.00 25 1020.9
20210723150021 94 150 13.0 15.6 0.00 0.00 0.00 24 1020.9
20210723145020 91 170 11.3 14.8 0.00 0.00 0.00 27 1020.9
20210723144021 91 163 10.4 14.8 0.00 0.00 0.00 27 1020.9
20210723143020 90 197 9.6 13.9 0.00 0.00 0.00 27 1020.9
20210723142020 91 185 6.1 13.0 0.00 0.00 0.00 27 1020.9
20210723141020 89 199 10.4 14.8 0.00 0.00 0.00 29 1020.9
20210723140019 87 174 12.2 15.6 0.00 0.00 0.00 31 1020.9
20210723135019 87 183 8.7 13.9 0.00 0.00 0.00 33 1020.9
20210723134018 87 170 6.1 12.2 0.00 0.00 0.00 35 1020.9
20210723133018 86 198 6.1 11.3 0.00 0.00 0.00 39 1020.9
20210723132018 85 172 11.3 11.3 0.00 0.00 0.00 55 1020.9
20210723131018 83 183 8.7 13.0 0.00 0.00 0.00 66 1020.9
20210723130018 80 189 8.7 11.3 0.00 0.00 0.00 68 1020.9
20210723125018 79 173 8.7 13.0 0.00 0.00 0.00 69 1019.9
20210723124017 78 179 8.7 12.2 0.00 0.00 0.00 69 1019.9
20210723123017 77 166 7.8 10.4 0.00 0.00 0.00 69 1019.9
20210723122016 77 171 0.0 4.3 0.00 0.00 0.00 69 1019.9
20210723121016 76 171 0.0 7.8 0.00 0.00 0.00 69 1019.9
20210723120015 76 181 2.6 6.1 0.00 0.00 0.00 69 1019.9
20210723115016 76 172 0.0 8.7 0.00 0.00 0.00 69 1019.9
20210723114015 76 199 0.0 11.3 0.00 0.00 0.00 69 1019.9
20210723113015 76 157 0.0 3.5 0.00 0.00 0.00 70 1019.9
20210723112015 76 174 0.0 7.8 0.00 0.00 0.00 70 1019.9
20210723111015 76 179 0.0 3.5 0.00 0.00 0.00 70 1019.9
20210723110014 76 186 0.0 8.7 0.00 0.00 0.00 70 1019.9
20210723105014 76 169 2.6 6.1 0.00 0.00 0.00 70 1019.9
20210723104014 76 171 0.0 11.3 0.00 0.00 0.00 70 1019.9
20210723103013 76 162 4.3 4.3 0.00 0.00 0.00 71 1019.9
20210723102013 76 167 0.0 4.3 0.00 0.00 0.00 71 1019.9
20210723101013 76 148 0.0 0.0 0.00 0.00 0.00 71 1019.9
20210723100012 76 182 0.0 0.0 0.00 0.00 0.00 71 1019.9
20210723095012 76 199 0.0 3.5 0.00 0.00 0.00 71 1019.9
20210723094012 76 214 0.0 4.3 0.00 0.00 0.00 71 1019.9
20210723093012 76 184 0.0 7.8 0.00 0.00 0.00 71 1019.9
20210723092011 76 173 2.6 10.4 0.00 0.00 0.00 71 1019.9
20210723091011 76 182 0.0 5.2 0.00 0.00 0.00 71 1019.9
20210723090011 76 165 0.0 2.6 0.00 0.00 0.00 71 1019.9
20210723085010 76 170 0.0 0.0 0.00 0.00 0.00 71 1019.9
20210723084009 76 189 0.0 2.6 0.00 0.00 0.00 71 1019.9
20210723083009 76 213 0.0 10.4 0.00 0.00 0.00 71 1019.9
20210723082009 76 178 6.1 11.3 0.00 0.00 0.00 71 1019.9
20210723081009 76 188 9.6 12.2 0.00 0.00 0.00 71 1019.9
20210723080038 76 186 9.6 13.0 0.00 0.00 0.00 72 1019.9
20210723075039 76 172 12.2 12.2 0.00 0.00 0.00 72 1019.9
20210723074038 76 169 6.1 13.0 0.00 0.00 0.00 72 1019.9
20210723073038 76 170 10.4 13.0 0.00 0.00 0.00 72 1019.9
20210723072037 76 201 7.0 12.2 0.00 0.00 0.00 72 1019.9
20210723071037 76 174 9.6 12.2 0.00 0.00 0.00 72 1019.9
20210723070037 75 166 8.7 12.2 0.00 0.00 0.00 71 1019.9
20210723065037 75 178 0.0 0.0 0.00 0.00 0.00 71 1019.9
20210723064036 75 181 0.0 10.4 0.00 0.00 0.00 71 1019.9
20210723063036 74 166 2.6 9.6 0.00 0.00 0.00 71 1019.9
20210723062035 74 145 0.0 0.0 0.00 0.00 0.00 71 1019.9
20210723061035 74 162 0.0 0.0 0.00 0.00 0.00 71 1019.9
20210723060035 74 161 0.0 0.0 0.00 0.00 0.00 71 1019.9
20210723055035 74 168 0.0 0.0 0.00 0.00 0.00 71 1019.9
20210723054035 74 152 0.0 0.0 0.00 0.00 0.00 70 1019.9
20210723053034 73 162 0.0 8.7 0.00 0.00 0.00 70 1019.9
20210723052034 73 148 0.0 6.1 0.00 0.00 0.00 70 1019.9
20210723051034 73 173 0.0 0.0 0.00 0.00 0.00 70 1019.9
20210723050033 73 182 0.0 8.7 0.00 0.00 0.00 70 1019.9
20210723045033 73 152 0.0 0.0 0.00 0.00 1.36 70 1019.9
20210723044033 73 143 0.0 7.0 0.00 0.00 1.36 70 1019.9
20210723043032 73 129 0.0 8.7 0.00 0.00 1.36 70 1019.9
20210723042032 73 115 0.0 7.8 0.00 0.00 1.36 70 1019.9
20210723041032 73 149 0.0 0.0 0.00 0.00 1.36 70 1019.9
20210723040031 73 155 0.0 8.7 0.00 0.00 1.36 70 1019.9
20210723035031 73 166 0.0 7.0 0.00 0.00 1.36 70 1019.9
20210723034031 72 157 0.0 7.0 0.00 0.00 1.36 70 1019.9
20210723033031 72 160 6.1 6.1 0.00 0.00 1.36 70 1019.9
20210723032030 72 156 5.2 7.0 0.00 0.00 1.36 70 1019.9
20210723031030 72 134 5.2 7.8 0.00 0.00 1.36 70 1019.9
20210723030030 72 125 7.0 8.7 0.00 0.00 1.36 70 1019.9
20210723025029 72 129 7.0 8.7 0.00 0.00 1.36 71 1019.9
20210723024029 72 142 4.3 7.0 0.00 0.00 1.36 71 1019.9
20210723023029 72 143 6.1 7.0 0.00 0.00 1.36 72 1019.9
20210723022028 72 135 7.0 8.7 0.00 0.00 1.36 72 1018.9
20210723021028 72 138 6.1 8.7 0.00 0.00 1.36 72 1018.9
20210723020028 72 135 8.7 9.6 0.00 0.00 1.36 73 1018.9
20210723015028 72 124 7.0 9.6 0.00 0.00 1.36 73 1018.9
20210723014027 72 127 5.2 8.7 0.00 0.00 1.36 73 1018.9
20210723013027 72 124 6.1 9.6 0.00 0.00 1.36 74 1018.9
20210723012027 72 137 8.7 9.6 0.00 0.00 1.36 74 1018.9
20210723011027 72 107 6.1 10.4 0.00 0.00 1.36 74 1018.9
20210723010026 72 120 7.0 11.3 0.00 0.00 1.36 74 1019.9
20210723005026 72 129 8.7 10.4 0.04 0.00 1.36 74 1019.9
20210723004026 72 122 7.0 9.6 0.08 0.00 1.36 74 1019.9
20210723003025 72 115 7.8 9.6 0.08 0.00 1.36 74 1019.9
20210723002025 71 129 5.2 7.0 0.12 0.00 1.36 74 1019.9
20210723001024 71 96 0.0 0.0 0.12 0.00 1.36 74 1019.9
20210723000025 72 94 0.0 4.3 0.12 0.00 1.36 74 1020.9
20210722235024 72 133 0.0 5.2 0.12 0.00 1.32 73 1020.9
20210722234024 72 171 0.0 3.5 0.12 0.00 1.28 73 1020.9
20210722233024 71 156 0.0 4.3 0.12 0.00 1.28 73 1020.9
20210722232023 71 132 4.3 8.7 0.08 0.00 1.24 73 1019.9
20210722231023 71 117 7.0 11.3 0.08 0.00 1.24 72 1019.9
20210722230023 72 104 9.6 12.2 0.08 0.00 1.24 71 1020.9
20210722225023 72 113 10.4 20.0 0.08 0.00 1.20 70 1020.9
20210722224022 72 121 12.2 20.0 0.04 0.00 1.16 67 1020.9
20210722223022 72 173 13.0 16.5 0.04 0.00 1.16 68 1019.9
20210722222021 72 120 4.3 6.1 0.04 0.00 1.16 70 1018.9
20210722221021 72 86 4.3 6.1 0.04 0.00 1.16 70 1018.9
20210722220021 72 356 4.3 4.3 0.04 0.00 1.16 70 1019.9
20210722215020 72 75 0.0 0.0 0.12 0.00 1.12 71 1020.9
20210722214021 72 134 0.0 2.6 0.32 0.00 1.12 71 1020.9
20210722213020 73 145 0.0 7.8 1.00 0.00 1.12 70 1019.9
20210722212020 73 316 0.0 6.1 1.00 0.00 1.12 70 1019.9
20210722211019 72 327 0.0 7.0 1.00 0.00 1.12 69 1019.9
20210722210019 71 8 6.1 15.6 1.00 0.00 1.12 66 1020.9
20210722205019 72 304 10.4 20.9 0.88 0.00 1.00 62 1019.9
20210722204019 73 351 4.3 41.7 0.68 0.00 0.80 46 1019.9
20210722203018 85 150 18.2 26.9 0.00 0.00 0.12 30 1019.9
20210722202018 90 111 6.1 11.3 0.00 0.00 0.12 27 1018.9
20210722201018 95 114 9.6 9.6 0.00 0.00 0.12 22 1018.9
20210722200017 96 167 0.0 7.0 0.12 0.00 0.12 20 1019.9
20210722195017 95 175 4.3 7.8 0.12 0.00 0.12 26 1019.9
20210722194017 92 203 4.3 5.2 0.12 0.00 0.12 29 1019.9
20210722193017 91 258 3.5 7.0 0.12 0.00 0.12 34 1019.9
20210722192016 86 259 4.3 7.0 0.12 0.00 0.12 33 1020.9
20210722191016 87 232 6.1 15.6 0.12 0.00 0.12 27 1020.9
20210722190016 91 198 8.7 11.3 0.00 0.00 0.00 22 1019.9
20210722185016 93 186 7.0 10.4 0.00 0.00 0.00 21 1020.9
20210722184015 99 160 5.2 8.7 0.00 0.00 0.00 19 1020.9
20210722183015 96 193 7.0 9.6 0.00 0.00 0.00 21 1020.9
20210722182014 95 201 8.7 11.3 0.00 0.00 0.00 21 1020.9
20210722181014 94 174 9.6 14.8 0.00 0.00 0.00 21 1020.9
20210722180013 97 208 0.0 0.0 0.00 0.00 0.00 20 1020.9
20210722175013 96 176 0.0 12.2 0.00 0.00 0.00 20 1021.9
20210722174013 96 227 4.3 11.3 0.00 0.00 0.00 21 1021.9
20210722173012 98 166 8.7 11.3 0.00 0.00 0.00 20 1021.9
20210722172012 95 187 7.8 13.0 0.00 0.00 0.00 21 1021.9
20210722171012 94 169 12.2 12.2 0.00 0.00 0.00 22 1021.9
20210722170012 92 176 8.7 9.6 0.00 0.00 0.00 24 1021.9
20210722165012 93 183 9.6 10.4 0.00 0.00 0.00 22 1021.9